This demonstration page uses our WeatherBlox Daily Observations layout. Learn more.

Left ArrowRight Arrow

Hourly Observations for November 9, 2020

Temp ( °F °C ) Dew Point ( °F °C ) Humidity (%) Winds ( mph kmh ) Pressure ( in mb ) Visibility ( mi km ) Precip ( " mm )
12:53 am 00:53 Clear 45 7.2 43 6.1 93 93 Calm 30.25 1024 10 16 0.00 0.00
1:53 am 01:53 Clear 44 6.7 42 5.6 93 93 Calm 30.24 1024 10 16 0.00 0.00
2:53 am 02:53 Clear 43 6.1 41 5 93 93 Calm 30.25 1024 10 16 0.00 0.00
3:53 am 03:53 Clear 43 6.1 41 5 93 93 Calm 30.24 1024 10 16 0.00 0.00
4:53 am 04:53 Clear 43 6.1 41 5 93 93 Calm 30.25 1024 10 16 0.00 0.00
5:53 am 05:53 Clear 42 5.6 40 4.4 92 92 Calm 30.27 1025 10 16 0.00 0.00
6:53 am 06:53 Clear 42 5.6 41 5 96 96 Calm 30.28 1025 7 11 0.00 0.00
7:53 am 07:53 Sunny 43 6.1 42 5.6 97 97 Calm 30.29 1026 9 14 0.00 0.00
8:53 am 08:53 Sunny 57 13.9 50 10 78 78 E 5 7 30.30 1026 10 16 0.00 0.00
9:53 am 09:53 Sunny 66 18.9 52 11.1 61 61 SE 3 6 30.28 1025 10 16 0.00 0.00
10:53 am 10:53 Sunny 70 21.1 54 12.2 57 57 SSE 5 7 30.26 1025 10 16 0.00 0.00
11:53 am 11:53 Sunny 75 23.9 55 12.8 50 50 SE 5 7 30.24 1024 10 16 0.00 0.00
12:53 pm 12:53 Sunny 77 25 56 13.3 48 48 Calm 30.20 1023 10 16 0.00 0.00
1:53 pm 13:53 Sunny 78 25.6 57 13.9 48 48 ESE 6 9 30.16 1021 10 16 0.00 0.00
2:53 pm 14:53 Sunny 79 26.1 55 12.8 44 44 Calm 30.14 1021 10 16 0.00 0.00
3:53 pm 15:53 Sunny 79 26.1 54 12.2 42 42 VRB 3 6 30.13 1020 10 16 0.00 0.00
4:53 pm 16:53 Sunny 77 25 54 12.2 45 45 VRB 3 6 30.12 1020 10 16 0.00 0.00
5:53 pm 17:53 Clear 65 18.3 53 11.7 66 66 Calm 30.12 1020 10 16 0.00 0.00
6:53 pm 18:53 Clear 62 16.7 52 11.1 70 70 ESE 3 6 30.13 1020 10 16 0.00 0.00
7:53 pm 19:53 Clear 60 15.6 52 11.1 75 75 E 5 7 30.13 1020 10 16 0.00 0.00
8:53 pm 20:53 Mostly Cloudy 61 16.1 53 11.7 75 75 E 3 6 30.12 1020 10 16 0.00 0.00
9:53 pm 21:53 Mostly Clear 61 16.1 53 11.7 75 75 Calm 30.11 1020 10 16 0.00 0.00
10:53 pm 22:53 Clear 57 13.9 52 11.1 83 83 ENE 3 6 30.10 1019 10 16 0.00 0.00
11:53 pm 23:53 Clear 59 15 53 11.7 81 81 ENE 3 6 30.09 1019 10 16 0.00 0.00

Powered by AerisWeather